Вернуться в каталог

FENGYUN 1C DEB

АктивенPO
NORAD 31540·DEBRIS·🇨🇳 China

Запущен May 10, 1999 с Taiyuan Satellite Launch Center

Loading…

Ближайшие Пролёты (ближайшие 24 часа)

TLE

СвежийSource: Space-Track

Эпоха: Sep 11, 2026, 18:57 UTC

1 31540U 99025BYF 26254.78995559  .00004039  00000-0  57231-3 0  9991
2 31540  99.0690  88.1524 0169595 180.2227 179.8927 14.68290143 22907

Отслеживайте FENGYUN 1C DEB в реальном времени с AllMySat

Download on the App Store